JA7KUB Weather Reports


Display with metric or nautical units.
time (UTC)temp
F
wind
direction
speed
MPH
gust
MPH
rain 1hr
in
rain 24hr
in
rain mn
in
humidity
%
barometer
mb
20260505073350 67 133 1.0 4.0 0.00 0.04 0.00 39 1029.3
20260505070327 66 138 1.0 8.0 0.00 0.04 0.00 41 1029.3
20260505063347 66 355 1.0 7.0 0.00 0.04 0.00 41 1029.2
20260505060344 65 131 3.0 9.0 0.00 0.04 0.00 40 1029.1
20260505053323 64 287 1.0 11.0 0.00 0.04 0.00 41 1029.4
20260505050321 64 224 2.0 9.0 0.00 0.04 0.00 43 1029.6
20260505040339 63 254 5.0 14.0 0.00 0.04 0.00 39 1029.6
20260505033317 61 296 4.0 13.0 0.00 0.04 0.00 43 1029.9
20260505030315 60 329 5.0 15.0 0.00 0.04 0.00 46 1030.2
20260505023315 59 122 10.0 21.0 0.00 0.04 0.00 42 1030.1
20260505020333 58 238 6.0 16.0 0.00 0.04 0.00 48 1030.1
20260505013333 58 172 4.0 13.0 0.00 0.04 0.00 53 1030.0
20260505010331 56 252 7.0 16.0 0.00 0.04 0.00 57 1029.8
20260505003331 55 248 6.0 11.0 0.00 0.04 0.00 63 1029.5
20260505000328 53 271 5.0 13.0 0.00 0.08 0.00 66 1029.2
20260504233326 52 299 2.0 12.0 0.00 0.08 0.00 68 1028.8
20260504230324 51 307 4.0 12.0 0.00 0.08 0.00 70 1028.4
20260504223345 50 310 7.0 17.0 0.00 0.08 0.00 71 1027.9
20260504220322 48 210 5.0 13.0 0.00 1.10 0.00 74 1027.6
20260504213322 47 325 9.0 15.0 0.00 1.10 0.00 76 1026.9
20260504210319 46 306 4.0 7.0 0.00 1.22 0.00 80 1026.8
20260504203320 45 283 3.0 5.0 0.00 1.22 0.00 81 1026.4
20260504200318 44 86 2.0 14.0 0.00 1.26 0.00 82 1025.6
20260504193317 44 1 5.0 14.0 0.00 1.26 0.00 83 1024.9
20260504190316 44 302 3.0 16.0 0.00 1.54 0.00 82 1024.5
20260504183316 44 307 5.0 12.0 0.00 1.54 0.00 81 1023.9
20260504180334 44 323 4.0 14.0 0.00 2.09 0.00 82 1023.3
20260504173334 44 298 4.0 11.0 0.00 2.09 0.00 81 1022.7
20260504170332 44 300 8.0 17.0 0.00 2.40 0.00 81 1022.3
20260504160330 45 291 10.0 22.0 0.00 2.44 0.00 78 1020.8
20260504150326 46 301 5.0 20.0 0.00 2.44 0.49 77 1019.2
20260504140346 47 324 9.0 20.0 0.00 2.44 0.49 80 1018.5
20260504130323 48 312 10.0 26.0 0.00 2.56 0.49 83 1017.8
20260504120316 49 330 14.0 27.0 0.00 2.68 0.49 82 1015.6
20260504110334 54 307 9.0 20.0 0.00 2.68 0.49 72 1014.1
20260504100332 55 228 8.0 25.0 0.00 2.68 0.49 73 1012.3
20260504080326 57 307 9.0 28.0 0.04 2.68 0.49 73 1010.4